Weerstation Grootegast  Weerstation Grootegast


15 daagse weersverwachting Herning (DK)

  • Overzicht
  • Per uur
  • 15 dagen
  • Extra
  • Vergelijk
  • Kaarten
  • Dagkaart
  • Meer »
  • Info
  • Statistieken
  • Directe link
    Temp 6h Neerslag Wind  
 04:38     22:14    Daglengte: 17:36 Vandaag
02:00
12°
 
2
08:00
15°
 
4
14:00
20°
 
6
20:00
20°
 
3
 04:38     22:14    Daglengte: 17:36 Morgen
02:00
16°
 
3
08:00
18°
 
3
14:00
23°
 
3
20:00
21°
 
2
 04:38     22:15    Daglengte: 17:37 Woensdag 19 Jun
02:00
14°
 
1
08:00
17°
 
2
14:00
26°
1.8 mm
5
warningclass
20:00
22°
7.3 mm
4
Locatie info
Region: Midtjylland
Latitude: 56.1375°N
Longitude: 8.9761°E
58 masl
Postcode: 7400
Temp/Neerslag /Baro Onweer/Dauwpunt
    Temp Baro 1h Neerslag Dauwpunt Wind UV Bewolking  
 04:38     22:14    Daglengte: 17:36 Vandaag
02:00
12°
1019.4 hPa   11.2°
2
Windvlaag: 3.2 m/s
23%
03:00
12°
1019.4 hPa   11.1°
2
Windvlaag: 3.2 m/s
45%
04:00
11°
1019.3 hPa
14%
11.2°
2
Windvlaag: 3.8 m/s
52%
05:00
11°
1019.2 hPa
14%
11.1°
2
Windvlaag: 4 m/s
49%
06:00
12°
1019.2 hPa
14%
11.2°
2
Windvlaag: 4.1 m/s
38%
07:00
13°
1019.3 hPa
14%
11.8°
3
Windvlaag: 4.6 m/s
20%
08:00
15°
1019.4 hPa
14%
12.8°
4
Windvlaag: 6.3 m/s
16%
09:00
17°
1019.3 hPa
14%
13.4°
4
Windvlaag: 7.5 m/s
3%
10:00
19°
1019.5 hPa
14%
13.4°
5
Windvlaag: 8.2 m/s
11%
11:00
20°
1019.5 hPa
14%
13.6°
6
Windvlaag: 8.8 m/s
30%
12:00
20°
1019.6 hPa
14%
13.8°
6
Windvlaag: 9.2 m/s
29%
13:00
20°
1019.8 hPa
14%
13.1°
6
Windvlaag: 9.5 m/s
18%
14:00
20°
1019.8 hPa
14%
12.0°
6
Windvlaag: 9.6 m/s
8%
15:00
20°
1019.7 hPa
14%
12.0°
6
Windvlaag: 9.5 m/s
8%
16:00
20°
1019.6 hPa
14%
12.4°
5
Windvlaag: 8.6 m/s
11%
17:00
20°
1019.2 hPa
14%
12.5°
5
Windvlaag: 7.8 m/s
26%
18:00
20°
1019.1 hPa
14%
12.9°
5
Windvlaag: 7.7 m/s
27%
19:00
20°
1019.1 hPa
14%
13.0°
4
Windvlaag: 7.3 m/s
17%
20:00
20°
1019.0 hPa
14%
13.0°
3
Windvlaag: 6.6 m/s
29%
21:00
19°
1018.8 hPa
14%
13.1°
2
Windvlaag: 5.5 m/s
33%
22:00
18°
1018.6 hPa
14%
12.9°
2
Windvlaag: 3.8 m/s
49%
23:00
17°
1018.4 hPa
14%
12.7°
2
Windvlaag: 3.3 m/s
52%
 04:38     22:14    Daglengte: 17:36 Morgen
00:00
17°
1018.2 hPa
14%
12.5°
2
Windvlaag: 4.3 m/s
52%
01:00
17°
1017.8 hPa
14%
13.2°
2
Windvlaag: 4.9 m/s
51%
02:00
16°
1017.6 hPa
17%
12.5°
3
Windvlaag: 6.3 m/s
70%
03:00
16°
1017.2 hPa
81%
12.3°
3
Windvlaag: 7.2 m/s
60%
04:00
16°
1016.7 hPa
81%
13.2°
4
Windvlaag: 8.2 m/s
70%
05:00
16°
1016.6 hPa
77%
13.7°
2
Windvlaag: 7.2 m/s
60%
06:00
16°
1016.3 hPa
30%
13.8°
2
Windvlaag: 5.4 m/s
53%
07:00
16°
1016.0 hPa
60%
13.7°
3
Windvlaag: 5.2 m/s
68%
08:00
18°
1015.8 hPa
60%
14.0°
3
Windvlaag: 5.4 m/s
71%
09:00
19°
1015.8 hPa
53%
14.6°
3
Windvlaag: 5.6 m/s
64%
10:00
20°
1015.6 hPa
14%
15.2°
3
Windvlaag: 5.5 m/s
71%
11:00
22°
1015.3 hPa
14%
15.5°
3
Windvlaag: 6.6 m/s
71%
12:00
23°
1014.9 hPa
17%
15.7°
3
Windvlaag: 6.9 m/s
75%
13:00
22°
1014.7 hPa
74%
15.0°
3
Windvlaag: 7 m/s
62%
14:00
23°
1014.4 hPa
76%
15.2°
3
Windvlaag: 6.7 m/s
51%
15:00
23°
1014.2 hPa
76%
15.4°
3
Windvlaag: 6.2 m/s
59%
16:00
23°
1013.9 hPa
71%
15.4°
2
Windvlaag: 5.3 m/s
58%
17:00
23°
1013.6 hPa
81%
14.6°
3
Windvlaag: 4.8 m/s
60%
18:00
22°
1013.4 hPa
29%
14.1°
3
Windvlaag: 4.8 m/s
77%
19:00
22°
1013.3 hPa
24%
12.9°
2
Windvlaag: 4.4 m/s
73%
20:00
21°
1013.4 hPa
22%
12.7°
2
Windvlaag: 3.4 m/s
39%
21:00
19°
1013.3 hPa
21%
12.6°
2
Windvlaag: 2.8 m/s
72%
22:00
18°
1013.2 hPa
21%
12.5°
2
Windvlaag: 2.1 m/s
48%
23:00
16°
1013.1 hPa
21%
12.8°
2
Windvlaag: 1.7 m/s
46%
 04:38     22:15    Daglengte: 17:37 Woensdag 19 Jun
00:00
15°
1013.0 hPa
21%
13.0°
1
Windvlaag: 1.1 m/s
38%
01:00
15°
1012.8 hPa
21%
12.5°
1
Windvlaag: 1.4 m/s
44%
02:00
14°
1012.5 hPa
21%
11.9°
1
Windvlaag: 1.2 m/s
48%
03:00
14°
1012.2 hPa
21%
11.1°
2
Windvlaag: 2.3 m/s
64%
04:00
13°
1011.9 hPa
21%
10.8°
2
Windvlaag: 2.1 m/s
73%
05:00
13°
1011.6 hPa
21%
11.3°
2
Windvlaag: 2.4 m/s
79%
06:00
14°
1011.4 hPa
21%
11.4°
2
Windvlaag: 2.5 m/s
84%
07:00
15°
1011.0 hPa
21%
11.3°
2
Windvlaag: 2.6 m/s
68%
08:00
17°
1010.7 hPa
21%
12.0°
2
Windvlaag: 3.2 m/s
73%
09:00
19°
1010.1 hPa
21%
14.0°
3
Windvlaag: 5 m/s
88%
10:00
21°
1009.7 hPa
21%
15.1°
3
Windvlaag: 5.4 m/s
64%
11:00
23°
1009.1 hPa
21%
15.8°
3
Windvlaag: 6.4 m/s
49%
12:00
25°
1008.6 hPa
21%
17.4°
4
Windvlaag: 7.3 m/s
77%
13:00
25°
1008.1 hPa 0.7 mm
100%
17.3°
4
Windvlaag: 8.2 m/s
33% warningclass
14:00
26°
1007.5 hPa 1.1 mm
95%
17.0°
5
Windvlaag: 8.7 m/s
57% warningclass
15:00
25°
1007.1 hPa
39%
16.4°
6
Windvlaag: 1.4 m/s
48%
16:00
25°
1006.4 hPa 1.0 mm
25%
17.8°
5
Windvlaag: 1.3 m/s
42% warningclass
17:00
25°
1005.8 hPa
25%
17.9°
5
Windvlaag: 1.3 m/s
26%
18:00
25°
1005.4 hPa 1.7 mm
22%
18.1°
4
Windvlaag: 1.3 m/s
28% warningclass
19:00
23°
1005.4 hPa 2.7 mm
21%
18.5°
4
Windvlaag: 1.2 m/s
70% warningclass
20:00
22°
1005.1 hPa 2.0 mm
21%
18.0°
4
Windvlaag: 1.1 m/s
55%
21:00
21°
1005.0 hPa
21%
17.5°
4
Windvlaag: 7.1 m/s
84%
22:00
20°
1005.0 hPa
21%
17.0°
4
Windvlaag: 4.5 m/s
83%
23:00
19°
1005.0 hPa
21%
16.7°
4
Windvlaag: 8.5 m/s
83%
 04:38     22:15    Daglengte: 17:37 Donderdag 20 Jun
00:00
18°
1005.1 hPa
21%
16.2°
4
Windvlaag: 6.5 m/s
79%
01:00
17°
1005.0 hPa
22%
15.8°
4
Windvlaag: 8.1 m/s
89%
Temp/Neerslag /Baro Onweer/Dauwpunt
    Temp Baro Neerslag Dauwpunt Wind Bewolking  
 04:38     22:14    Daglengte: 17:36 Vandaag
02:00
12°
1019.4 hPa   11.2°
2
23%
05:00
11°
1019.2 hPa   11.1°
2
49%
08:00
15°
1019.4 hPa   12.8°
4
16%
11:00
20°
1019.5 hPa   13.6°
6
30%
14:00
20°
1019.8 hPa   12.0°
6
8%
17:00
20°
1019.2 hPa   12.5°
5
26%
20:00
20°
1019.0 hPa   13.0°
3
29%
23:00
17°
1018.4 hPa   12.7°
2
52%
 04:38     22:14    Daglengte: 17:36 Morgen
02:00
16°
1017.6 hPa   12.5°
3
70%
05:00
16°
1016.6 hPa   13.7°
2
60%
08:00
18°
1015.8 hPa   14.0°
3
71%
11:00
22°
1015.3 hPa   15.5°
3
71%
14:00
23°
1014.4 hPa   15.2°
3
51%
17:00
23°
1013.6 hPa   14.6°
3
60%
20:00
21°
1013.4 hPa   12.7°
2
39%
23:00
16°
1013.1 hPa   12.8°
2
46%
 04:38     22:15    Daglengte: 17:37 Woensdag 19 Jun
02:00
14°
1012.5 hPa   11.9°
1
48%
05:00
13°
1011.6 hPa   11.3°
2
79%
08:00
17°
1010.7 hPa   12.0°
2
73%
11:00
23°
1009.1 hPa   15.8°
3
49%
14:00
26°
1007.5 hPa 1.8 mm 17.0°
5
57% warningclass
17:00
25°
1005.8 hPa 1.0 mm 17.9°
5
26%
20:00
22°
1005.1 hPa 6.3 mm 18.0°
4
55%
23:00
19°
1005.0 hPa   16.7°
4
83%
 04:38     22:15    Daglengte: 17:37 Donderdag 20 Jun
02:00
16°
1004.9 hPa 18.1 mm 15.3°
4
86%
05:00
15°
1006.7 hPa 7.6 mm 14.1°
4
85%
08:00
15°
1007.5 hPa 7.7 mm 13.6°
4
85%
11:00
16°
1009.0 hPa 7.7 mm 13.3°
4
71%
14:00
18°
1010.4 hPa 7.7 mm 12.7°
5
57%
17:00
17°
1011.0 hPa 7.7 mm 11.8°
4
62%
20:00
16°
1011.5 hPa 7.7 mm 10.8°
3
67%
23:00
14°
1012.2 hPa 7.7 mm 10.8°
3
35%
 04:38     22:15    Daglengte: 17:37 Vrijdag 21 Jun
02:00
11°
1013.0 hPa 7.7 mm 10.4°
2
4%
05:00
13°
1013.6 hPa 7.7 mm 10.9°
3
15%
08:00
14°
1014.2 hPa 7.7 mm 11.5°
3
26%
11:00
16°
1014.7 hPa 7.7 mm 11.9°
4
35%
14:00
17°
1015.2 hPa 8.3 mm 12.2°
5
44%
17:00
16°
1015.8 hPa 8.8 mm 10.5°
5
25%
20:00
15°
1016.3 hPa 8.8 mm 8.6°
4
6%
23:00
12°
1017.6 hPa 8.8 mm 8.8°
3
9%
 04:39     22:15    Daglengte: 17:36 Zaterdag 22 Jun
02:00
Voelt als: 8.4°
1018.7 hPa 8.8 mm 8.5°
2
12%
05:00
11°
1019.5 hPa 8.8 mm 8.8°
3
16%
08:00
13°
1020.4 hPa 8.8 mm 9.1°
3
20%
11:00
15°
1021.0 hPa 8.8 mm 8.7°
4
42%
14:00
17°
1021.7 hPa 8.8 mm 8.0°
4
63%
17:00
16°
1021.9 hPa 8.9 mm 8.3°
4
32%
20:00
15°
1022.1 hPa 8.9 mm 8.4°
3
0%
23:00
11°
1022.8 hPa 8.9 mm 8.0°
3
44%
 04:39     22:15    Daglengte: 17:36 Zondag 23 Jun
02:00
Voelt als: 6.1°
1023.5 hPa 8.9 mm 7.1°
2
88%
05:00
10°
Voelt als: 8.7°
1023.6 hPa 8.9 mm 8.0°
2
87%
08:00
12°
1023.9 hPa 8.9 mm 9.1°
2
86%
11:00
15°
1023.5 hPa 8.9 mm 8.8°
1
47%
14:00
18°
1023.3 hPa 8.9 mm 7.6°
1
9%
17:00
18°
1022.2 hPa 8.9 mm 8.8°
2
11%
20:00
17°
1021.2 hPa 8.9 mm 9.9°
3
13%
23:00
15°
1021.3 hPa   10.3°
3
52%
 04:39     22:16    Daglengte: 17:37 Maandag 24 Jun
02:00
14°
1021.3 hPa 17.7 mm 10.2°
3
92%
08:00
14°
1019.8 hPa 17.7 mm 11.2°
4
86%
14:00
18°
1018.9 hPa 17.7 mm 10.1°
4
64%
20:00
18°
1017.7 hPa 17.7 mm 12.5°
3
92%
 04:40     22:15    Daglengte: 17:35 Dinsdag 25 Jun
02:00
14°
1017.3 hPa 17.7 mm 10.6°
4
92%
08:00
15°
1014.9 hPa 17.7 mm 12.0°
6
92%
14:00
15°
1011.3 hPa 18.0 mm 13.8°
7
92%
20:00
19°
1006.0 hPa 41.6 mm 17.9°
2
60%
 04:40     22:15    Daglengte: 17:35 Woensdag 26 Jun
02:00
13°
1009.6 hPa 51.1 mm 11.7°
7
76%
08:00
15°
1010.9 hPa 51.7 mm 11.9°
9
73%
14:00
17°
1013.7 hPa 51.8 mm 12.9°
7
92%
20:00
17°
1018.0 hPa 0.2 mm 11.4°
3
37%
 04:41     22:15    Daglengte: 17:34 Donderdag 27 Jun
02:00
12°
1017.7 hPa 0.5 mm 9.6°
2
36%
08:00
14°
1016.2 hPa 1.1 mm 10.6°
1
48%
14:00
19°
1015.7 hPa 0.6 mm 11.8°
2
52%
20:00
17°
1014.1 hPa 1.5 mm 12.2°
2
48%
 04:41     22:15    Daglengte: 17:34 Vrijdag 28 Jun
02:00
12°
1013.4 hPa 0.5 mm 10.2°
2
37%
08:00
14°
1012.1 hPa 0.2 mm 10.8°
2
45%
14:00
18°
1011.7 hPa 0.5 mm 11.4°
3
53%
20:00
16°
1010.6 hPa 1.4 mm 11.4°
3
46%
 04:42     22:15    Daglengte: 17:33 Zaterdag 29 Jun
02:00
12°
1010.4 hPa 0.9 mm 9.6°
2
42%
08:00
14°
1010.0 hPa 0.7 mm 10.5°
3
47%
14:00
18°
1010.7 hPa 0.6 mm 10.9°
4
54%
20:00
16°
1010.5 hPa 1.0 mm 10.8°
4
42%
 04:43     22:14    Daglengte: 17:31 Zondag 30 Jun
02:00
11°
1010.5 hPa 1.4 mm 9.5°
2
37%
08:00
14°
1010.2 hPa 1.1 mm 10.7°
3
42%
14:00
18°
1010.8 hPa 1.1 mm 11.5°
4
50%
20:00
16°
1010.8 hPa 1.5 mm 11.3°
4
40%
 04:44     22:14    Daglengte: 17:30 Maandag 01 Jul
02:00
12°
1011.4 hPa 0.6 mm 9.8°
3
41%
08:00
14°
1011.4 hPa 0.3 mm 10.5°
3
42%
14:00
19°
1012.2 hPa 0.6 mm 11.0°
4
54%
20:00
16°
1012.1 hPa 0.8 mm 11.0°
4
43%
  CAPE Lifted Index Hail Supercell Tornado SRH 3km CL BTM PRES CL TOP PRES Swiss DWD icon SMHI TS
 04:38     22:14    Daglengte: 17:36 Vandaag
02:00 0 J/kg 6.3 K 0 % 0 % 0 % 0 m²/s² 0 0 8.73 0
03:00 1 J/kg 6.3 K 0 % 0 % 0 % 0 m²/s² 0 0 9.69 0
04:00 1 J/kg 5.1 K 0 % 0 % 0 % 0 m²/s² 0 0 9.6 0
05:00 1 J/kg 4.1 K 0 % 0 % 0 % 0 m²/s² 0 0 8.6 1
06:00 2 J/kg 3.6 K 0 % 0 % 0 % 0 m²/s² 0 0 6.57 1
07:00 1 J/kg 2.5 K 0 % 0 % 0 % 0 m²/s² 0 0 4.51 2
08:00 0 J/kg 2.4 K 0 % 0 % 0 % 0 m²/s² 0 0 3.66 3
09:00 9 J/kg 1.1 K 0 % 0 % 0 % 0 m²/s² 0 0 2.42 2
10:00 33 J/kg 0.8 K 0 % 0 % 0 % 0 m²/s² 0 0 1.82 1
11:00 41 J/kg 0.6 K 0 % 0 % 0 % 0 m²/s² 0 0 1.53 3
12:00 23 J/kg 1.1 K 0 % 0 % 0 % 0 m²/s² 0 0 2.33 2
13:00 7 J/kg 1.5 K 0 % 0 % 0 % 0 m²/s² 0 0 3.15 1
14:00 81 J/kg 0.5 K 0 % 0 % 0 % 0 m²/s² 0 0 2.54 2
15:00 148 J/kg 0.0 K 0 % 0 % 0 % 0 m²/s² 0 0 2.76 2
16:00 181 J/kg -0.3 K 0 % 0 % 0 % 0 m²/s² 0 0 3.12 2
17:00 180 J/kg -0.3 K 0 % 0 % 0 % 0 m²/s² 0 0 3.3 2
18:00 127 J/kg 0.1 K 0 % 0 % 0 % 0 m²/s² 0 0 3.91 2
19:00 40 J/kg 0.6 K 0 % 0 % 0 % 0 m²/s² 0 0 4.59 2
20:00 44 J/kg 0.8 K 0 % 0 % 0 % 0 m²/s² 0 0 4.61 1
21:00 59 J/kg 0.8 K 0 % 0 % 0 % 0 m²/s² 0 0 4.61 1
22:00 72 J/kg 0.9 K 0 % 0 % 0 % 0 m²/s² 0 0 4.23 1
23:00 63 J/kg 0.6 K 0 % 0 % 0 % 0 m²/s² 0 0 3.51 1
 04:38     22:14    Daglengte: 17:36 Morgen
00:00 0 J/kg -0.2 K 0 % 0 % 0 % 0 m²/s² 0 0 2.05 2
01:00 0 J/kg -0.3 K 0 % 0 % 0 % 0 m²/s² 0 0 1.68 2
02:00 0 J/kg -0.5 K 0 % 0 % 0 % 0 m²/s² 0 0 1.81 3
03:00 0 J/kg -0.6 K 0 % 0 % 0 % 0 m²/s² 0 0 2.4 2
04:00 0 J/kg -1.1 K 0 % 0 % 0 % 0 m²/s² 0 0 1.66 80
05:00 105 J/kg -2.5 K 0 % 0 % 0 % 0 m²/s² 0 0 0.26 3
06:00 0 J/kg -2.9 K 0 % 0 % 0 % 0 m²/s² 0 0 0.16 3
07:00 27 J/kg -3.2 K 0 % 0 % 0 % 0 m²/s² 0 0 0.91 2
08:00 167 J/kg -2.8 K 0 % 0 % 0 % 0 m²/s² 0 0 1.43 2
09:00 386 J/kg -2.3 K 0 % 0 % 0 % 0 m²/s² 0 0 1.72 2
10:00 778 J/kg -3.5 K 0 % 0 % 0 % 0 m²/s² 0 0 0.31 3
11:00 867 J/kg -3.6 K 0 % 0 % 0 % 0 m²/s² 0 0 0.3 3
12:00 929 J/kg -3.6 K 0 % 0 % 0 % 0 m²/s² 0 0 0.42 3
13:00 972 J/kg -3.7 K 0 % 0 % 0 % 0 m²/s² 0 0 0.02 3
14:00 677 J/kg -2.8 K 0 % 0 % 0 % 0 m²/s² 0 0 1.01 3
15:00 238 J/kg -1.2 K 0 % 0 % 0 % 0 m²/s² 0 0 2.73 3
16:00 12 J/kg 0.3 K 0 % 0 % 0 % 0 m²/s² 0 0 4.05 3
17:00 0 J/kg 0.5 K 0 % 0 % 0 % 0 m²/s² 0 0 3.68 2
18:00 0 J/kg 1.1 K 0 % 0 % 0 % 0 m²/s² 0 0 4.04 2
19:00 0 J/kg 1.7 K 0 % 0 % 0 % 0 m²/s² 0 0 4.55 3
20:00 0 J/kg 3.0 K 0 % 0 % 0 % 0 m²/s² 0 0 5.94 3
21:00 0 J/kg 3.5 K 0 % 0 % 0 % 0 m²/s² 0 0 6.62 3
22:00 0 J/kg 4.0 K 0 % 0 % 0 % 0 m²/s² 0 0 7.21 3
23:00 0 J/kg 4.5 K 0 % 0 % 0 % 0 m²/s² 0 0 7.44 3
 04:38     22:15    Daglengte: 17:37 Woensdag 19 Jun
00:00 0 J/kg 4.1 K 0 % 0 % 0 % 0 m²/s² 0 0 6.8 2
01:00 0 J/kg 3.8 K 0 % 0 % 0 % 0 m²/s² 0 0 6.29 1
02:00 0 J/kg 2.5 K 0 % 0 % 0 % 0 m²/s² 0 0 4.69 2
03:00 0 J/kg 1.2 K 0 % 0 % 0 % 0 m²/s² 0 0 3.39 2
04:00 0 J/kg -0.8 K 0 % 0 % 0 % 0 m²/s² 0 0 1.54 3
05:00 0 J/kg -1.7 K 0 % 0 % 0 % 0 m²/s² 0 0 0.79 3
06:00 0 J/kg -2.2 K 0 % 0 % 0 % 0 m²/s² 0 0 0.29 3
07:00 0 J/kg -2.4 K 0 % 0 % 0 % 0 m²/s² 0 0 0.24 3
08:00 283 J/kg -2.6 K 0 % 0 % 0 % 0 m²/s² 0 0 -0.26 3
09:00 761 J/kg -3.3 K 0 % 0 % 0 % 0 m²/s² 0 0 -0.87 3
10:00 1157 J/kg -4.2 K 0 % 0 % 0 % 0 m²/s² 0 0 -1.86 3
11:00 1463 J/kg -5.0 K 0 % 0 % 0 % 0 m²/s² 0 0 -2.42 3
12:00 1269 J/kg -4.1 K 0 % 0 % 0 % 0 m²/s² 0 0 -2.15 3
13:00 1162 J/kg -4.1 K 0 % 0 % 0 % 0 m²/s² 0 0 -2.15 80
14:00 1109 J/kg -4.9 K 0 % 0 % 0 % 0 m²/s² 0 0 -2.68 80
15:00 1230 J/kg -4.8 K 0 % 0 % 0 % 0 m²/s² 0 0 -3.21 2
16:00 1791 J/kg -5.7 K 0 % 0 % 0 % 0 m²/s² 0 0 -3.99 1
17:00 2291 J/kg -7.3 K 0 % 0 % 0 % 0 m²/s² 0 0 -5.77 1
18:00 2323 J/kg -6.9 K 0 % 0 % 0 % 0 m²/s² 0 0 -4.68 2
19:00 1736 J/kg -5.3 K 0 % 0 % 0 % 0 m²/s² 0 0 -2.63 1
20:00 1215 J/kg -3.7 K 0 % 0 % 0 % 0 m²/s² 0 0 -0.79 1
21:00 1143 J/kg -4.1 K 0 % 0 % 0 % 0 m²/s² 0 0 -2.06 0
22:00 1255 J/kg -5.0 K 0 % 0 % 0 % 0 m²/s² 0 0 -4.1 2
23:00 429 J/kg -2.2 K 0 % 0 % 0 % 0 m²/s² 0 0 -1.3 1
 04:38     22:15    Daglengte: 17:37 Donderdag 20 Jun
00:00 148 J/kg -1.5 K 0 % 0 % 0 % 0 m²/s² 0 0 -1.47 1
01:00 26 J/kg -0.1 K 0 % 0 % 0 % 0 m²/s² 0 0 1.61 3
Temp Baro Wind Neerslag
  EWN Forecast EWN WRFDA DWD ICON FMI HIRLAM MET Norway GFS
 04:38     22:14    Daglengte: 17:36 Vandaag
02:00 11.7° 1019.4 hPa 2.2 m/s 0.0 mm 9.6° 1018.9 hPa 2.9 m/s 0.0 mm 11.4° 1020.1 hPa 2.2 m/s -2.0 mm 11.4° 1018.5 hPa 2.4 m/s 0.0 mm 12.8° 1019.4 hPa 1.7 m/s 9.4° 1019.6 hPa 2.9 m/s
05:00 11.4° 1019.2 hPa 2.4 m/s 0.0 mm 10.1° 1019.0 hPa 3.2 m/s 0.1 mm 11.1° 1019.4 hPa 2.5 m/s 0.0 mm 11.4° 1017.8 hPa 2.4 m/s 0.0 mm 11.6° 1019.3 hPa 1.8 m/s 0.0 mm 9.5° 1019.0 hPa 3.3 m/s
08:00 15.3° 1019.4 hPa 3.8 m/s 0.0 mm 14.7° 1019.2 hPa 4.3 m/s 0.1 mm 15.3° 1019.7 hPa 5.2 m/s 0.0 mm 15.2° 1017.5 hPa 4.2 m/s 0.0 mm 16.3° 1019.6 hPa 3.1 m/s 0.0 mm 15.2° 1019.4 hPa 5.7 m/s
11:00 19.6° 1019.5 hPa 5.6 m/s 0.0 mm 18.9° 1019.5 hPa 6.7 m/s 0.1 mm 18.1° 1020.1 hPa 6.2 m/s 0.0 mm 19.9° 1017.9 hPa 6.3 m/s 0.0 mm 20.1° 1019.6 hPa 4.8 m/s 0.0 mm 18.4° 1020.3 hPa 6.5 m/s
14:00 20.4° 1019.8 hPa 6.1 m/s 0.0 mm 20.3° 1019.7 hPa 6.3 m/s 0.1 mm 19.6° 1020.4 hPa 6.0 m/s 0.0 mm 20.0° 1018.5 hPa 8.0 m/s 0.0 mm 21.7° 1019.8 hPa 5.7 m/s 0.0 mm 19.5° 1020.2 hPa 6.1 m/s
17:00 20.3° 1019.2 hPa 4.9 m/s 0.0 mm 20.7° 1019.0 hPa 5.5 m/s 0.1 mm 19.6° 1019.7 hPa 4.8 m/s 0.0 mm 18.3° 1018.5 hPa 5.8 m/s 0.0 mm 22.2° 1019.2 hPa 4.3 m/s 0.0 mm 19.1° 1019.9 hPa 5.5 m/s
20:00 19.6° 1019.0 hPa 3.4 m/s 0.0 mm 20.2° 1018.0 hPa 4.3 m/s 0.1 mm 18.6° 1019.1 hPa 2.4 m/s 0.0 mm 18.4° 1018.0 hPa 4.3 m/s 0.0 mm 20.8° 1019.1 hPa 3.1 m/s 0.0 mm 17.6° 1018.9 hPa 3.7 m/s
23:00 17.4° 1018.4 hPa 2.1 m/s 0.0 mm 18.2° 1017.8 hPa 3.7 m/s 0.1 mm 15.2° 1018.8 hPa 2.2 m/s 0.0 mm 17.4° 1018.3 hPa 2.4 m/s 0.0 mm 18.7° 1018.3 hPa 1.1 m/s 0.0 mm 13.8° 1019.0 hPa 3.0 m/s
 04:38     22:14    Daglengte: 17:36 Morgen
02:00 16.1° 1017.6 hPa 3.2 m/s 0.0 mm 15.3° 1017.1 hPa 4.1 m/s 0.7 mm 14.8° 1017.7 hPa 3.0 m/s 0.0 mm 14.5° 1017.6 hPa 2.1 m/s 0.0 mm 17.8° 1017.4 hPa 3.1 m/s 0.0 mm 14.0° 1017.9 hPa 3.8 m/s
05:00 15.9° 1016.6 hPa 2.1 m/s 0.0 mm 16.2° 1015.5 hPa 3.9 m/s 1.1 mm 14.1° 1016.8 hPa 2.3 m/s 0.3 mm 12.1° 1016.8 hPa 1.3 m/s 0.0 mm 16.7° 1016.7 hPa 0.9 m/s 0.0 mm 13.1° 1016.6 hPa 3.8 m/s
08:00 17.7° 1015.8 hPa 2.9 m/s 0.0 mm 18.2° 1015.2 hPa 4.5 m/s 1.1 mm 16.8° 1015.9 hPa 3.3 m/s 0.0 mm 17.7° 1016.0 hPa 1.8 m/s 0.0 mm 18.4° 1015.9 hPa 2.9 m/s 0.0 mm 16.2° 1016.2 hPa 3.9 m/s
11:00 21.5° 1015.3 hPa 3.1 m/s 0.0 mm 22.0° 1014.9 hPa 3.7 m/s 1.1 mm 20.4° 1015.2 hPa 3.0 m/s 0.0 mm 22.6° 1015.3 hPa 2.9 m/s 0.0 mm 21.7° 1016.0 hPa 2.9 m/s 0.0 mm 19.7° 1015.9 hPa 4.5 m/s
14:00 22.8° 1014.4 hPa 3.2 m/s 0.0 mm 23.5° 1014.1 hPa 5.1 m/s 1.3 mm 22.2° 1014.7 hPa 3.3 m/s 0.1 mm 22.5° 1014.1 hPa 1.8 m/s 0.0 mm 24.3° 1015.0 hPa 3.3 m/s 0.0 mm 20.8° 1015.3 hPa 5.1 m/s
17:00 22.7° 1013.6 hPa 2.6 m/s 0.0 mm 22.4° 1013.8 hPa 4.6 m/s 2.5 mm 22.4° 1013.6 hPa 2.7 m/s 0.2 mm 24.3° 1013.9 hPa 2.5 m/s 0.0 mm 19.7° 1014.8 hPa 3.5 m/s
20:00 20.7° 1013.4 hPa 2.1 m/s 0.0 mm 20.3° 1013.2 hPa 3.2 m/s 2.5 mm 20.1° 1013.6 hPa 1.4 m/s 0.0 mm 23.2° 1013.6 hPa 2.0 m/s 0.0 mm 17.2° 1014.1 hPa 2.6 m/s
23:00 16.4° 1013.1 hPa 1.6 m/s 0.0 mm 13.6° 1013.5 hPa 2.0 m/s 2.5 mm 15.8° 1013.3 hPa 1.7 m/s 0.0 mm 19.2° 1013.1 hPa 0.9 m/s 0.0 mm 12.0° 1014.7 hPa 1.5 m/s
 04:38     22:15    Daglengte: 17:37 Woensdag 19 Jun
02:00 14.0° 1012.5 hPa 1.1 m/s 0.0 mm 11.6° 1012.3 hPa 2.4 m/s 2.5 mm 13.2° 1013.0 hPa 1.7 m/s 0.0 mm 16.6° 1012.5 hPa 0.9 m/s 0.0 mm 10.7° 1013.5 hPa 1.5 m/s
05:00 13.0° 1011.6 hPa 1.9 m/s 0.0 mm 13.0° 1010.6 hPa 3.3 m/s 2.5 mm 12.3° 1012.2 hPa 1.8 m/s 0.0 mm 13.8° 1011.7 hPa 1.8 m/s 0.0 mm 10.6° 1012.5 hPa 1.5 m/s
08:00 17.0° 1010.7 hPa 2.2 m/s 0.0 mm 19.8° 1009.2 hPa 3.3 m/s 2.5 mm 15.6° 1011.5 hPa 2.6 m/s 0.0 mm 17.6° 1010.6 hPa 2.2 m/s 0.0 mm 14.7° 1011.7 hPa 2.6 m/s
11:00 23.3° 1009.1 hPa 3.4 m/s 0.0 mm 24.5° 1007.4 hPa 4.6 m/s 2.7 mm 19.3° 1010.4 hPa 3.8 m/s 0.0 mm 23.9° 1009.1 hPa 2.9 m/s 0.0 mm 19.7° 1011.3 hPa 2.8 m/s
14:00 26.2° 1007.5 hPa 4.7 m/s 1.8 mm 26.9° 1005.6 hPa 7.2 m/s 4.1 mm 22.5° 1008.5 hPa 4.1 m/s 1.1 mm 26.9° 1007.5 hPa 4.5 m/s 0.0 mm 23.1° 1009.7 hPa 3.1 m/s
17:00 25.1° 1005.8 hPa 4.9 m/s 1.0 mm 25.5° 1004.8 hPa 5.1 m/s 7.7 mm 24.1° 1006.7 hPa 4.0 m/s 0.0 mm 25.2° 1005.7 hPa 5.1 m/s 0.0 mm 22.2° 1007.8 hPa 3.9 m/s
20:00 22.1° 1005.1 hPa 3.9 m/s 6.3 mm 23.4° 1003.3 hPa 3.9 m/s 15.1 mm 22.4° 1005.4 hPa 4.3 m/s 0.0 mm 21.7° 1005.3 hPa 3.8 m/s 1.9 mm 20.3° 1005.3 hPa 4.2 m/s
23:00 18.7° 1005.0 hPa 4.2 m/s 0.0 mm 18.6° 1004.7 hPa 5.5 m/s 25.3 mm 19.1° 1004.6 hPa 3.7 m/s 0.0 mm 18.7° 1005.4 hPa 4.2 m/s 17.5° 1005.4 hPa 4.9 m/s
 04:38     22:15    Daglengte: 17:37 Donderdag 20 Jun
02:00 16.2° 1004.9 hPa 4.1 m/s 18.1 mm 16.2° 1002.8 hPa 4.0 m/s 52.9 mm 17.7° 1004.7 hPa 2.9 m/s 0.6 mm 15.7° 1005.5 hPa 4.5 m/s 15.9° 1003.4 hPa 6.2 m/s
05:00 15.2° 1006.7 hPa 4.1 m/s 7.6 mm 15.3° 1006.9 hPa 4.0 m/s 13.7° 1004.3 hPa 5.4 m/s 7.6 mm
08:00 14.9° 1007.5 hPa 4.0 m/s 7.7 mm 15.1° 1007.6 hPa 3.8 m/s 13.2° 1005.9 hPa 6.5 m/s 7.7 mm
11:00 16.3° 1009.0 hPa 4.5 m/s 7.7 mm 16.5° 1009.0 hPa 4.3 m/s 14.3° 1009.1 hPa 5.8 m/s 7.7 mm
14:00 17.9° 1010.4 hPa 5.0 m/s 7.7 mm 17.9° 1010.4 hPa 4.9 m/s 17.6° 1010.8 hPa 6.3 m/s 7.7 mm
17:00 17.1° 1011.0 hPa 4.1 m/s 7.7 mm 17.0° 1010.9 hPa 3.9 m/s 17.3° 1011.7 hPa 6.3 m/s 7.7 mm
20:00 16.1° 1011.5 hPa 3.0 m/s 7.7 mm 16.2° 1011.4 hPa 2.9 m/s 15.0° 1012.1 hPa 4.3 m/s 7.7 mm
23:00 13.6° 1012.2 hPa 2.5 m/s 7.7 mm 13.8° 1012.2 hPa 2.5 m/s 10.6° 1012.7 hPa 2.9 m/s 7.7 mm
 04:38     22:15    Daglengte: 17:37 Vrijdag 21 Jun
02:00 11.3° 1013.0 hPa 2.1 m/s 7.7 mm 11.5° 1013.0 hPa 2.1 m/s 9.4° 1012.8 hPa 2.6 m/s 7.7 mm
05:00 12.7° 1013.6 hPa 2.6 m/s 7.7 mm 13.0° 1013.6 hPa 2.5 m/s 9.0° 1013.2 hPa 2.6 m/s 7.7 mm
08:00 14.4° 1014.2 hPa 3.0 m/s 7.7 mm 14.5° 1014.3 hPa 3.0 m/s 13.5° 1013.4 hPa 3.3 m/s 7.7 mm
11:00 15.6° 1014.7 hPa 3.8 m/s 7.7 mm 15.4° 1014.8 hPa 3.8 m/s 17.3° 1014.2 hPa 4.2 m/s 7.7 mm
14:00 16.5° 1015.2 hPa 4.7 m/s 8.3 mm 16.4° 1015.3 hPa 4.6 m/s 17.9° 1014.2 hPa 6.0 m/s 8.3 mm
17:00 15.6° 1015.8 hPa 4.6 m/s 8.8 mm 15.5° 1015.9 hPa 4.5 m/s 17.2° 1014.2 hPa 5.7 m/s 8.8 mm
20:00 14.6° 1016.3 hPa 4.4 m/s 8.8 mm 14.6° 1016.5 hPa 4.4 m/s 14.2° 1014.6 hPa 4.7 m/s 8.8 mm
23:00 11.9° 1017.6 hPa 3.2 m/s 8.8 mm 12.1° 1017.7 hPa 3.2 m/s 9.9° 1016.0 hPa 3.0 m/s 8.8 mm
 04:39     22:15    Daglengte: 17:36 Zaterdag 22 Jun
02:00 9.4° 1018.7 hPa 2.2 m/s 8.8 mm 9.5° 1018.9 hPa 2.1 m/s 8.7° 1016.5 hPa 3.0 m/s 8.8 mm
05:00 11.0° 1019.5 hPa 2.6 m/s 8.8 mm 11.2° 1019.8 hPa 2.5 m/s 8.6° 1017.0 hPa 2.6 m/s 8.8 mm
08:00 13.0° 1020.4 hPa 3.0 m/s 8.8 mm 13.0° 1020.6 hPa 3.0 m/s 12.6° 1018.1 hPa 3.3 m/s 8.8 mm
11:00 15.0° 1021.0 hPa 3.5 m/s 8.8 mm 14.9° 1021.2 hPa 3.5 m/s 15.5° 1019.3 hPa 3.8 m/s 8.8 mm
14:00 16.9° 1021.7 hPa 4.1 m/s 8.8 mm 16.9° 1021.8 hPa 4.0 m/s 17.0° 1020.0 hPa 4.8 m/s 8.8 mm
17:00 15.9° 1021.9 hPa 3.8 m/s 8.9 mm 15.8° 1022.1 hPa 3.7 m/s 16.3° 1019.6 hPa 4.8 m/s 8.9 mm
20:00 14.7° 1022.1 hPa 3.4 m/s 8.9 mm 14.8° 1022.4 hPa 3.4 m/s 13.6° 1019.3 hPa 3.9 m/s 8.9 mm
23:00 11.0° 1022.8 hPa 2.9 m/s 8.9 mm 11.3° 1023.1 hPa 3.0 m/s 8.1° 1020.0 hPa 2.5 m/s 8.9 mm
 04:39     22:15    Daglengte: 17:36 Zondag 23 Jun
02:00 7.7° 1023.5 hPa 2.5 m/s 8.9 mm 7.8° 1023.8 hPa 2.5 m/s 6.7° 1019.9 hPa 1.9 m/s 8.9 mm
05:00 9.7° 1023.6 hPa 2.2 m/s 8.9 mm 10.0° 1024.0 hPa 2.2 m/s 6.5° 1019.3 hPa 1.8 m/s 8.9 mm
08:00 12.1° 1023.9 hPa 2.0 m/s 8.9 mm 12.2° 1024.2 hPa 1.9 m/s 11.1° 1020.1 hPa 3.0 m/s 8.9 mm
11:00 15.2° 1023.5 hPa 1.3 m/s 8.9 mm 15.2° 1023.9 hPa 1.1 m/s 14.9° 1020.2 hPa 4.0 m/s 8.9 mm
14:00 18.0° 1023.3 hPa 0.7 m/s 8.9 mm 18.2° 1023.5 hPa 0.3 m/s 16.1° 1020.7 hPa 4.9 m/s 8.9 mm
17:00 17.8° 1022.2 hPa 2.0 m/s 8.9 mm 18.0° 1022.4 hPa 1.7 m/s 15.3° 1020.1 hPa 5.3 m/s 8.9 mm
20:00 17.5° 1021.2 hPa 3.1 m/s 8.9 mm 17.9° 1021.3 hPa 3.0 m/s 12.7° 1020.1 hPa 4.5 m/s 8.9 mm
23:00 15.4° 1021.3 hPa 2.8 m/s 8.9 mm 16.0° 1021.3 hPa 2.8 m/s 8.3° 1020.5 hPa 3.2 m/s 8.9 mm
 04:39     22:16    Daglengte: 17:37 Maandag 24 Jun
02:00 13.6° 1021.3 hPa 2.6 m/s 8.9 mm 14.2° 1021.4 hPa 2.5 m/s 7.6° 1020.6 hPa 3.3 m/s 8.9 mm
08:00 13.8° 1019.8 hPa 3.8 m/s 8.9 mm 14.0° 1019.8 hPa 3.7 m/s 11.9° 1020.2 hPa 5.1 m/s 8.9 mm
14:00 18.0° 1018.9 hPa 4.2 m/s 8.9 mm 18.2° 1018.8 hPa 4.0 m/s 15.7° 1020.3 hPa 5.8 m/s 8.9 mm
20:00 18.0° 1017.7 hPa 3.3 m/s 8.9 mm 18.5° 1017.6 hPa 3.3 m/s 12.3° 1018.9 hPa 3.9 m/s 8.9 mm
 04:40     22:15    Daglengte: 17:35 Dinsdag 25 Jun
02:00 14.1° 1017.3 hPa 3.6 m/s 8.9 mm 14.7° 1017.3 hPa 3.8 m/s 7.3° 1017.7 hPa 1.7 m/s 8.9 mm
08:00 15.1° 1014.9 hPa 5.7 m/s 8.9 mm 15.4° 1014.8 hPa 6.0 m/s 11.6° 1016.0 hPa 1.8 m/s 8.9 mm
14:00 15.1° 1011.3 hPa 7.2 m/s 9.2 mm 15.2° 1011.0 hPa 7.5 m/s 13.4° 1014.3 hPa 3.4 m/s 9.2 mm
20:00 18.6° 1006.0 hPa 2.4 m/s 23.8 mm 19.3° 1005.6 hPa 1.9 m/s 10.6° 1010.1 hPa 8.2 m/s 23.8 mm
 04:40     22:15    Daglengte: 17:35 Woensdag 26 Jun
02:00 13.1° 1009.6 hPa 7.4 m/s 25.7 mm 13.1° 1010.0 hPa 7.7 m/s 12.6° 1005.7 hPa 3.7 m/s 25.7 mm
08:00 14.6° 1010.9 hPa 9.4 m/s 25.9 mm 14.5° 1011.6 hPa 9.9 m/s 15.3° 1003.4 hPa 3.4 m/s 25.8 mm
14:00 16.9° 1013.7 hPa 7.1 m/s 25.9 mm 16.8° 1014.6 hPa 7.4 m/s 18.4° 1003.4 hPa 3.5 m/s 25.9 mm
20:00 17.2° 1018.0 hPa 2.8 m/s 0.2 mm
 04:41     22:15    Daglengte: 17:34 Donderdag 27 Jun
02:00 11.7° 1017.7 hPa 1.7 m/s 0.5 mm
08:00 14.2° 1016.2 hPa 1.5 m/s 1.1 mm
14:00 18.9° 1015.7 hPa 2.0 m/s 0.6 mm
20:00 17.0° 1014.1 hPa 2.5 m/s 1.5 mm
 04:41     22:15    Daglengte: 17:34 Vrijdag 28 Jun
02:00 12.0° 1013.4 hPa 1.6 m/s 0.5 mm
08:00 13.9° 1012.1 hPa 2.1 m/s 0.2 mm
14:00 18.2° 1011.7 hPa 3.0 m/s 0.5 mm
20:00 16.1° 1010.6 hPa 3.3 m/s 1.4 mm
 04:42     22:15    Daglengte: 17:33 Zaterdag 29 Jun
02:00 11.5° 1010.4 hPa 2.4 m/s 0.9 mm
08:00 13.9° 1010.0 hPa 2.8 m/s 0.7 mm
14:00 18.3° 1010.7 hPa 3.6 m/s 0.6 mm
20:00 16.2° 1010.5 hPa 3.7 m/s 1.0 mm
 04:43     22:14    Daglengte: 17:31 Zondag 30 Jun
02:00 11.4° 1010.5 hPa 2.4 m/s 1.4 mm
08:00 14.0° 1010.2 hPa 2.9 m/s 1.1 mm
14:00 18.3° 1010.8 hPa 3.8 m/s 1.1 mm
20:00 16.2° 1010.8 hPa 3.9 m/s 1.5 mm
 04:44     22:14    Daglengte: 17:30 Maandag 01 Jul
02:00 11.6° 1011.4 hPa 2.8 m/s 0.6 mm
08:00 13.8° 1011.4 hPa 3.1 m/s 0.3 mm
14:00 18.6° 1012.2 hPa 3.9 m/s 0.6 mm
20:00 16.2° 1012.1 hPa 3.7 m/s 0.8 mm
FMI Hirlam - 7.5 km EWN WRFDA - 12 km DWD ICON - 7 km GFS - 25 km Basiskaart






























































Updatetijd (Europe/Amsterdam) Resolutie Lengte Stap
FMI Hirlam 01:15, 07:15, 13:15, 19:15 7.5 km 49h 1h
EWN WRFDA 22:15, 04:15, 10:15, 16:15 12 km 73h 1h
DWD ICON 23:45, 05:45, 11:45, 17:45 7 km 75h 1h
GFS 20:30, 02:30, 08:30, 14:30 25 km 237h 3h
30+ mm
25-30 mm
20-25 mm
15-20 mm
10-15 mm
6-10 mm
4-6 mm
2-4 mm
1-2 mm
0.5-1 mm
0.2-0.5 mm
0.1-0.2 mm
30+ mm
25-30 mm
20-25 mm
15-20 mm
10-15 mm
6-10 mm
4-6 mm
2-4 mm
1-2 mm
0.5-1 mm
0.2-0.5 mm
0.1-0.2 mm
Sneeuwval
Natte sneeuw
Hagel
Vorst
30+ mm
25-30 mm
20-25 mm
15-20 mm
10-15 mm
6-10 mm
4-6 mm
2-4 mm
1-2 mm
0.5-1 mm
0.2-0.5 mm
0.1-0.2 mm
Sneeuwval
Natte sneeuw
Hagel
Vorst
Onweer
50 mm
40 mm
30 mm
26 mm
22 mm
18 mm
14 mm
10 mm
9 mm
8 mm
7 mm
6 mm
5 mm
4.5 mm
4 mm
3.5 mm
3 mm
2.5 mm
2 mm
1.5 mm
1 mm
0.8 mm
0.6 mm
0.4 mm
0.2 mm
0.05 mm
35°
30°
25°
20°
15°
10°
-5°
-10°
-15°
-20°
-25°
-30°
-35°
33> m/s
29 m/s
25 m/s
21 m/s
17 m/s
14 m/s
11 m/s
8 m/s
5 m/s
3 m/s
0 m/s
2600 J/kg
2400 J/kg
2200 J/kg
2000 J/kg
1800 J/kg
1600 J/kg
1400 J/kg
1200 J/kg
1000 J/kg
800 J/kg
600 J/kg
400 J/kg
200 J/kg
70 dBZ
65 dBZ
60 dBZ
55 dBZ
50 dBZ
45 dBZ
40 dBZ
35 dBZ
30 dBZ
25 dBZ
20 dBZ
15 dBZ
10 dBZ
5 dBZ
-1 K
-2 K
-3 K
-4 K
-5 K
-6 K
-7 K
-8 K
-9 K
950 m²/s²
900 m²/s²
850 m²/s²
800 m²/s²
750 m²/s²
700 m²/s²
650 m²/s²
600 m²/s²
550 m²/s²
500 m²/s²
450 m²/s²
400 m²/s²
350 m²/s²
300 m²/s²
250 m²/s²
200 m²/s²
150 m²/s²
100 m²/s²
46 m/s
44 m/s
42 m/s
40 m/s
38 m/s
36 m/s
34 m/s
32 m/s
30 m/s
28 m/s
26 m/s
24 m/s
22 m/s
20 m/s
16 m/s
12 m/s
8 m/s
4 m/s
30 m/s
28 m/s
26 m/s
24 m/s
22 m/s
20 m/s
18 m/s
16 m/s
14 m/s
12 m/s
10 m/s
8 m/s
6 m/s
4 m/s
2 m/s
3.0
2.8
2.6
2.4
2.2
2.0
1.8
1.6
1.4
1.2
1.0
0.8
0.6
0.4
0.2
15
14
13
12
11
10
9
8
7
6
5
4
3
2
1
90%
80%
70%
60%
50%
40%
30%
20%
10%
42
40
38
36
34
32
30
28
26
24
22
20
18
16
14
12
90+ cm